Back to catalog

CZ-4C DEB

AlivePO
NORAD 43266·DEBRIS·🇨🇳 China

Launched Mar 31, 2018 from Taiyuan Satellite Launch Center

Loading…

Next Passes (next 24 hours)

TLE

FreshSource: Space-Track

Epoch: Sep 14, 2026, 00:01 UTC

1 43266U 18031H   26257.00116130  .00008116  00000-0  40624-3 0  9993
2 43266  98.1707  85.7721 0018828 354.3874   5.7144 15.17551520460234

Track CZ-4C DEB in real time with AllMySat

Download on the App Store